Wind_Speed
11 10 12 12 13 15 16 17 13 5 5 11 13 12 11 9 10 11 8 8 10 11 11 14 13 10 10 10 10 11 13 12 11 14 11 8 4 5 10 10 6 4 5 7 4 2 5 8 11 13 14 15 15 15 16 17 16 15 15 16 16 15 14 13 12 10 9 9 9 9 9 8 7 7 7 7 6 6 6 6 5 4 4 3 2 2
12 12 13 14 14 15 17 18 12 6 7 10 11 10 10 9 8 11 10 8 8 10 10 13 12 11 11 9 10 11 13 10 8 13 13 13 10 7 9 11 10 7 5 8 9 8 7 6 8 10 11 15 16 15 15 18 18 16 15 15 15 15 13 12 11 10 10 9 8 8 8 7 7 6 7 8 8 8 7 7 6 6 5 5 4 4
12 12 14 16 14 14 16 17 12 8 9 8 9 9 9 9 7 9 9 8 7 8 8 13 12 9 8 5 8 11 11 9 7 9 13 15 13 9 10 13 13 11 8 8 8 10 10 9 9 7 5 10 15 15 14 16 17 16 16 15 15 14 13 12 11 11 11 10 8 8 8 8 7 7 8 9 9 8 7 7 6 6 6 6 6 6
10 11 15 15 13 15 16 16 14 9 8 7 8 9 8 11 9 6 9 10 8 6 5 12 12 7 8 6 7 10 10 9 6 7 11 14 14 11 12 14 12 10 10 10 9 9 11 11 8 3 2 5 11 13 14 14 15 15 16 15 14 13 12 12 12 11 11 11 10 9 9 9 9 8 8 9 8 7 7 6 6 6 7 6 6 6
10 10 13 14 14 17 16 16 16 10 8 9 10 10 8 12 10 3 9 12 8 5 5 11 11 6 8 8 7 8 9 10 9 9 9 11 13 11 11 12 10 8 9 11 12 11 13 13 12 10 8 9 10 13 14 16 16 16 16 14 14 13 12 12 13 12 11 11 11 11 10 10 10 9 7 7 6 5 5 5 5 5 6 6 6 6
10 9 13 16 16 17 16 15 17 13 9 9 10 10 7 11 10 5 10 12 8 7 9 12 10 7 11 11 9 8 9 10 10 11 11 11 13 12 11 12 10 9 9 9 12 14 14 15 15 13 12 12 13 13 14 16 16 15 14 14 14 13 12 12 12 11 10 10 11 11 9 7 7 7 5 4 4 4 4 4 4 5 6 6 6 6
8 11 14 16 16 18 16 14 17 16 10 7 10 9 5 8 11 8 10 11 8 7 9 12 10 6 10 12 11 10 11 12 10 11 12 11 12 12 12 12 11 11 11 10 12 14 15 16 16 11 8 8 12 12 13 15 14 13 13 13 13 12 11 11 11 10 10 10 9 8 6 6 6 5 4 4 4 4 3 3 3 5 5 6 7 6
10 15 15 16 16 16 14 12 16 18 11 6 11 11 6 6 8 8 8 10 7 3 6 11 11 6 7 11 14 14 13 13 12 11 11 11 12 13 13 13 13 13 12 11 12 14 15 18 18 14 10 9 10 12 14 14 14 14 13 14 14 13 13 11 10 10 9 9 9 8 7 7 7 6 6 5 3 2 2 3 4 5 5 5 7 7
11 16 16 17 15 12 12 12 15 19 13 5 11 12 8 6 6 6 7 8 5 2 5 12 11 8 6 9 13 14 15 14 14 13 12 13 14 14 15 14 15 14 12 11 13 14 15 17 18 16 14 11 9 11 15 16 16 16 16 16 16 15 14 12 12 11 11 10 9 9 8 8 6 5 4 2 1 1 2 3 4 4 5 5 6 7
9 14 15 15 13 10 12 13 15 18 12 6 11 10 7 6 5 5 7 7 5 6 10 13 14 10 7 9 11 12 14 15 14 13 13 13 15 15 15 15 15 14 12 11 12 13 17 19 18 16 15 14 11 12 17 19 18 17 17 17 16 15 14 13 13 14 13 11 9 7 7 5 4 2 1 1 2 2 2 4 5 4 5 5 5 6
8 12 12 12 11 9 12 12 14 18 13 8 10 10 7 7 6 5 6 5 5 8 12 13 15 13 9 9 11 11 13 15 13 12 13 14 15 16 15 14 14 13 12 12 12 13 19 21 19 16 17 18 16 13 16 18 18 17 16 17 17 14 13 12 14 14 12 10 7 6 5 3 2 2 1 2 2 3 3 4 5 4 5 5 6 6
10 13 10 11 11 10 11 12 13 17 14 10 10 10 8 7 5 5 6 5 7 9 12 14 14 13 11 7 10 12 15 17 15 14 16 17 17 17 15 14 14 13 13 12 11 13 18 19 18 18 19 21 19 15 15 16 16 15 14 16 17 14 13 13 13 11 9 7 6 5 4 4 4 3 2 3 3 3 4 5 4 4 5 5 6 7
10 12 11 11 11 12 13 11 12 15 14 11 11 11 10 8 6 8 8 8 9 7 6 11 12 11 10 6 8 13 15 18 16 15 18 19 19 18 16 14 13 12 12 12 12 13 15 16 18 19 19 19 18 15 15 15 15 15 13 15 17 15 13 12 10 9 7 7 7 6 5 5 4 4 4 4 4 4 4 4 5 5 5 5 6 7
9 11 13 13 10 13 14 11 10 12 13 13 13 12 11 9 8 10 9 8 10 5 3 8 9 8 8 6 9 13 15 17 17 16 16 18 18 18 16 14 13 12 11 12 14 14 14 15 18 21 20 18 15 14 15 15 15 15 14 14 17 15 11 10 9 8 8 8 8 7 6 5 5 5 5 5 5 5 5 5 5 5 5 6 7 8
11 9 13 14 10 14 16 12 11 12 13 13 12 12 11 9 8 8 8 8 10 8 7 8 7 7 7 5 6 8 10 13 15 13 11 13 14 13 13 13 14 14 13 13 15 15 17 21 22 22 22 19 17 15 16 16 15 14 13 13 14 13 11 11 10 9 9 9 8 7 7 6 5 5 5 5 6 5 6 5 6 6 6 6 7 7
12 8 13 14 10 15 18 13 12 12 11 12 11 11 11 10 7 4 1 1 4 6 7 8 5 2 2 3 4 4 6 10 14 13 12 13 13 12 13 13 13 13 13 14 16 15 18 23 24 22 22 20 18 17 16 16 14 14 14 13 13 13 12 11 11 10 9 9 8 8 7 6 6 5 6 6 6 6 6 7 7 7 7 7 7 7
9 7 16 15 9 16 18 13 14 13 9 9 11 12 11 11 8 4 2 3 0 4 6 8 7 4 4 4 5 7 8 11 14 14 14 15 16 15 13 13 13 13 14 14 16 16 19 23 22 22 23 21 19 18 17 16 15 14 14 14 14 13 12 11 11 10 10 9 9 8 7 7 7 7 7 8 8 8 8 8 8 8 8 8 8 8
8 8 15 15 12 16 16 12 14 14 10 8 10 11 9 8 7 5 5 4 5 7 5 9 11 9 8 6 7 11 12 13 14 14 16 17 17 15 13 13 14 15 15 16 18 19 20 22 21 21 23 22 20 19 19 17 16 15 14 14 14 13 11 11 10 9 9 9 9 8 8 8 9 9 10 10 10 10 9 9 9 9 9 9 9 9
7 7 11 14 14 15 14 11 12 14 13 9 8 10 9 7 7 7 7 6 8 9 6 9 12 10 8 7 10 14 15 14 15 15 17 19 19 15 13 15 16 16 16 16 17 17 17 21 22 23 25 24 22 21 21 20 18 16 15 14 13 12 11 10 9 9 9 9 9 9 9 10 10 11 11 11 11 11 11 10 10 10 10 10 10 11
7 7 8 13 15 14 11 10 10 13 12 8 9 11 9 7 8 8 7 6 7 8 7 8 10 8 8 9 13 16 17 17 17 16 17 20 20 17 15 15 17 17 16 16 16 15 17 21 22 23 24 24 23 22 23 22 20 18 16 15 14 12 12 11 10 10 10 11 11 11 11 11 11 11 11 11 11 11 11 10 10 10 10 10 11 11
8 6 8 11 15 13 10 10 11 13 12 10 10 12 10 8 7 7 8 7 6 7 7 7 7 6 6 9 13 16 17 17 18 18 17 18 19 17 16 17 16 16 15 16 15 15 18 21 22 22 23 24 23 21 23 22 20 17 16 15 14 13 12 11 11 12 12 13 13 12 12 12 12 11 10 11 11 12 12 11 10 10 10 11 12 11
7 6 8 10 11 11 11 12 14 14 14 12 9 10 11 9 8 8 10 9 8 7 6 7 7 4 5 8 12 15 16 17 20 19 16 16 18 17 16 17 17 16 16 16 16 16 19 21 22 23 24 24 22 21 22 21 19 17 15 14 14 14 14 13 12 13 13 13 13 13 12 12 11 11 10 11 12 12 12 12 11 11 11 12 12 12
5 5 9 9 9 10 11 14 15 14 15 14 11 10 11 10 10 10 9 8 8 6 3 5 6 3 5 6 7 9 13 15 16 16 14 14 15 15 16 17 17 17 17 17 16 16 20 22 22 23 24 23 21 21 21 20 18 16 14 13 13 15 15 14 13 13 13 13 13 12 12 12 12 11 11 11 12 12 13 12 12 12 12 12 12 12
3 6 9 9 9 8 7 10 13 13 13 14 13 12 12 12 12 11 8 6 7 8 6 4 5 3 4 4 3 4 10 12 12 14 15 14 13 14 18 18 18 18 18 18 17 17 21 23 22 22 21 21 20 20 21 19 18 16 14 14 15 16 16 15 13 13 13 13 12 12 12 12 12 11 11 12 13 13 13 13 13 13 13 13 12 12
5 8 10 9 10 9 7 9 12 13 13 11 12 14 15 15 15 12 8 6 7 11 11 8 5 4 5 6 5 6 10 12 12 14 15 15 14 16 18 17 17 18 18 18 18 18 20 22 22 21 21 20 20 20 21 19 17 15 14 14 16 17 16 15 14 13 13 13 13 13 13 13 12 12 12 13 14 14 14 14 14 14 14 14 13 13
6 8 9 9 11 11 11 11 11 12 12 10 12 17 17 16 17 13 7 7 8 10 12 10 6 5 7 7 9 9 10 12 13 14 15 15 15 16 17 17 17 17 18 20 19 18 19 19 21 22 20 20 21 21 20 19 16 15 14 14 15 17 16 15 14 13 13 13 13 13 13 12 13 13 13 14 14 14 14 14 15 14 14 14 13 13
5 7 10 10 9 9 9 8 9 11 12 12 15 19 18 17 18 13 9 9 9 7 9 11 9 7 8 9 12 12 12 12 13 14 15 15 16 16 16 17 17 17 18 19 18 18 18 18 19 22 22 22 22 21 19 18 17 16 16 15 15 16 16 15 14 13 13 12 12 13 13 13 13 13 14 14 14 15 15 15 15 15 14 14 14 14
4 8 11 10 9 10 10 9 10 13 15 16 16 18 18 18 18 16 13 11 9 7 8 11 12 10 9 11 14 15 14 13 14 14 14 15 16 16 15 17 18 19 19 19 19 19 19 18 19 22 24 23 22 20 18 17 16 16 16 16 16 16 16 15 14 13 12 12 13 13 13 13 13 14 14 15 15 15 16 16 16 15 15 14 14 14
5 8 11 10 7 7 7 7 10 14 16 17 17 18 18 19 20 19 16 14 11 9 8 7 11 12 11 12 14 15 16 14 14 14 14 14 15 16 17 18 19 19 20 20 19 20 19 19 19 22 24 23 22 21 19 17 16 16 16 16 16 16 16 15 13 13 12 13 13 13 13 13 13 14 14 15 15 16 16 16 15 15 15 14 14 13
6 6 11 12 8 6 4 4 8 12 14 16 18 19 19 20 21 19 17 16 13 11 9 6 9 12 10 10 13 13 12 12 13 14 15 17 16 16 19 20 19 19 19 19 20 19 18 18 20 22 23 22 22 21 20 17 16 16 16 17 17 16 15 14 13 13 13 13 13 13 13 13 13 14 14 14 15 15 15 15 15 15 14 14 13 13
7 6 11 11 8 7 4 4 7 10 12 14 17 19 19 20 21 19 17 16 14 12 11 8 8 9 4 5 9 12 12 12 14 16 17 18 18 18 19 20 19 18 19 19 20 19 16 15 19 23 21 20 20 19 18 17 16 16 17 17 17 16 14 14 13 13 13 13 13 13 13 13 13 14 14 14 14 15 15 15 14 14 13 13 13 12
8 6 9 9 7 8 6 5 8 9 10 13 16 18 19 18 17 16 16 15 14 13 13 10 8 6 5 6 9 13 14 15 17 19 18 18 20 21 20 20 20 19 19 18 18 19 17 14 17 20 20 19 19 18 17 17 17 17 18 18 17 16 15 14 14 13 13 13 13 13 13 13 13 14 14 14 14 14 14 14 13 12 12 12 12 12
9 7 7 7 7 8 8 7 6 7 9 11 12 14 18 18 16 15 15 16 16 14 12 10 8 5 8 11 12 13 15 16 17 18 17 18 22 22 21 22 20 17 18 18 17 17 16 15 17 19 21 21 19 17 17 17 17 17 17 18 17 16 15 14 14 14 14 14 13 13 13 13 13 13 13 13 14 13 13 13 12 11 11 11 12 13
11 9 7 7 7 8 10 7 5 8 9 5 2 3 8 12 15 16 16 15 15 13 9 7 9 7 10 13 14 15 16 16 16 17 16 17 19 19 21 22 18 16 17 18 16 16 17 18 20 21 22 21 19 17 17 17 17 18 18 17 17 15 15 14 14 13 14 14 14 14 13 13 13 13 13 13 13 13 12 11 10 10 10 11 12 12
11 9 7 7 6 7 9 7 7 9 6 2 3 3 2 1 5 9 10 10 12 12 8 8 10 9 11 12 12 13 14 13 14 15 17 18 17 18 20 20 18 19 19 18 17 18 20 23 24 24 23 21 19 18 18 17 19 19 18 17 16 15 15 14 13 13 13 13 13 13 14 13 13 13 13 13 12 11 10 9 9 9 10 10 11 11
10 9 6 6 6 6 7 8 8 4 2 3 2 1 2 2 3 4 6 9 11 11 10 12 13 10 10 9 9 10 11 11 11 13 16 19 18 19 20 19 19 20 18 17 19 20 23 26 26 25 23 20 19 19 17 18 20 20 18 17 16 15 15 14 14 13 13 13 13 13 14 14 13 13 12 12 11 10 9 8 8 9 9 10 11 11
10 9 7 5 6 6 7 9 6 2 2 4 4 5 6 5 6 8 8 10 13 13 13 14 13 10 10 10 10 11 12 12 10 10 16 19 19 20 20 21 21 19 18 20 22 23 25 26 24 23 21 20 19 18 17 19 20 21 19 17 16 16 15 14 14 13 12 13 12 13 14 14 14 13 12 11 10 9 8 8 8 8 9 10 11 11
10 10 9 7 5 5 7 9 7 6 6 5 4 7 7 4 4 6 6 8 12 15 14 14 13 12 13 13 14 15 14 12 9 10 15 20 21 20 20 21 22 21 23 26 26 26 26 25 23 22 22 20 19 18 18 20 20 21 20 18 17 17 16 15 14 13 12 12 13 13 14 14 14 13 12 11 10 9 8 8 8 8 9 10 11 11
12 10 9 8 6 7 8 8 8 8 5 3 5 7 7 5 4 6 6 8 11 16 15 14 14 14 15 16 18 17 13 10 10 12 15 20 21 19 19 20 21 23 27 30 30 29 26 24 23 23 22 21 19 18 20 21 22 21 20 19 18 18 16 15 13 12 12 13 13 13 14 14 14 13 12 11 10 9 8 8 8 8 9 9 10 10
12 8 8 9 8 8 8 7 7 6 1 5 6 6 8 7 6 7 7 5 9 16 17 16 16 16 16 18 18 17 13 9 9 14 18 19 20 21 22 22 23 26 29 29 28 26 24 24 25 23 21 21 20 21 22 23 23 22 21 19 18 18 17 15 14 13 13 14 14 14 14 14 14 13 12 11 10 9 8 9 9 9 9 10 10 10
10 8 8 10 9 9 9 8 7 4 2 5 6 8 10 8 6 7 5 1 3 11 15 16 18 18 18 18 16 13 10 5 8 17 21 20 20 21 24 28 30 31 31 31 30 28 25 24 24 23 22 22 22 22 23 23 22 21 20 19 18 18 17 16 15 15 14 14 15 15 15 15 14 13 12 11 10 10 10 10 10 10 10 10 10 10
9 8 8 9 9 9 8 8 8 5 3 6 8 10 9 6 4 3 1 1 2 8 11 13 16 17 18 18 13 9 6 7 15 23 24 22 22 22 23 28 29 26 27 31 32 30 27 25 24 24 23 23 22 21 21 22 22 21 20 19 19 18 17 16 16 16 16 16 16 16 16 15 14 13 13 12 11 12 11 11 11 10 11 11 10 10
7 8 8 8 8 7 7 8 9 5 4 10 13 9 6 4 0 2 2 0 2 6 8 10 11 13 14 15 11 8 11 16 21 24 23 22 23 22 22 25 26 24 25 28 29 28 27 25 25 24 24 23 22 21 21 22 22 20 20 20 20 18 18 17 17 16 16 17 17 17 16 16 14 13 13 12 12 13 13 12 11 10 9 9 9 9
8 8 8 7 7 7 7 7 4 1 5 12 11 4 3 2 3 4 3 2 1 5 7 7 9 12 13 13 12 12 15 19 21 23 23 22 22 21 21 23 25 26 27 27 27 28 28 26 25 24 24 23 22 22 22 22 22 22 22 21 20 19 18 17 17 17 17 17 17 17 16 15 14 13 13 13 13 13 12 11 10 10 9 8 8 8
4 2 4 5 7 5 3 2 1 3 4 8 3 3 3 3 3 3 3 3 2 4 5 6 9 12 13 13 13 14 15 18 20 22 24 23 22 21 21 23 26 27 27 27 29 29 27 27 27 26 24 23 23 22 21 22 23 24 23 21 20 19 18 18 17 17 17 17 17 16 15 14 14 13 12 12 12 12 11 11 10 10 9 9 9 9
2 3 5 4 5 3 1 2 2 1 3 4 2 2 4 4 2 0 2 1 1 3 4 6 9 11 12 13 14 13 14 18 20 21 22 23 22 21 22 24 26 27 28 29 29 28 26 26 27 26 25 24 23 22 21 22 24 24 23 21 20 19 18 18 17 17 17 17 16 15 15 14 13 12 12 11 11 10 10 10 9 10 9 9 9 9
2 2 4 4 6 5 4 4 4 2 2 3 3 3 2 2 1 0 2 1 2 3 5 6 9 12 13 13 14 15 15 18 21 20 20 22 22 21 21 24 25 26 28 30 29 28 28 27 26 26 26 25 23 22 21 22 23 24 23 21 20 19 18 18 17 17 16 16 15 15 14 13 13 12 11 11 11 10 10 10 10 9 9 8 8 9
3 3 4 5 7 5 2 3 4 1 3 4 4 4 2 1 2 1 0 1 4 5 6 9 12 13 12 13 15 16 17 19 21 21 20 20 19 18 20 24 26 26 27 29 29 28 28 27 27 27 26 25 23 22 22 22 22 23 22 21 19 19 18 17 16 17 16 15 14 13 13 12 11 11 10 10 10 10 10 10 11 11 10 9 8 8
3 4 4 5 6 4 2 3 4 4 5 7 8 6 3 1 2 3 3 4 7 8 9 11 12 12 13 14 16 17 17 18 20 22 21 18 16 17 20 24 27 27 28 28 28 27 27 28 28 28 26 24 23 22 22 22 23 23 22 21 20 19 18 17 16 16 16 15 14 13 13 12 10 10 10 10 10 10 10 9 10 11 11 12 12 11
3 5 3 4 6 4 1 3 4 3 2 4 7 7 5 3 3 5 6 6 8 9 10 11 12 13 14 16 17 17 17 17 19 21 20 16 16 19 23 26 28 28 28 27 27 27 27 28 28 28 26 24 23 22 22 23 23 22 21 20 19 19 18 17 16 16 15 14 13 13 12 11 10 10 11 11 11 12 12 11 10 10 11 11 13 14
1 1 0 2 3 0 3 4 2 1 2 3 3 4 4 3 3 5 6 7 8 9 10 12 14 14 14 15 17 18 18 18 20 21 18 17 20 25 27 29 29 28 27 27 27 27 28 28 28 27 26 24 23 22 23 23 23 22 21 20 19 19 18 17 16 15 14 13 13 12 11 11 11 10 10 10 11 11 11 11 11 10 10 10 10 12
Wind_Direction
186 196 202 204 201 194 196 204 209 231 227 192 183 197 203 194 196 190 155 144 186 205 197 200 205 189 184 186 180 160 121 93 96 108 106 116 138 137 124 120 127 124 89 90 91 269 223 174 152 159 159 148 156 171 164 161 166 163 159 155 151 151 152 153 149 151 154 145 141 140 134 126 118 116 111 101 91 82 77 76 75 70 64 62 51 21
191 209 209 200 201 191 191 202 200 200 202 191 191 197 202 204 190 178 165 148 183 211 197 195 204 191 187 184 172 151 124 120 137 131 136 152 165 162 132 130 137 132 120 135 158 189 194 169 162 175 169 157 167 178 168 165 165 159 154 151 149 152 155 156 153 150 145 138 138 136 129 121 112 107 104 94 83 78 75 70 67 61 53 48 41 24
198 215 209 196 200 193 187 193 190 192 197 195 201 200 202 203 173 153 161 155 177 214 193 184 201 185 160 145 138 131 125 148 171 151 150 155 163 166 145 146 153 153 155 155 171 172 152 155 183 209 207 165 170 176 169 163 158 154 152 151 153 153 152 150 148 143 135 131 131 128 124 119 105 92 90 89 81 78 74 67 62 54 43 38 33 22
196 209 205 192 190 186 180 186 191 199 206 208 208 204 205 193 182 168 166 164 176 222 207 183 196 171 120 91 98 115 126 152 173 152 153 157 161 164 153 157 163 158 155 158 170 157 136 147 161 168 232 175 165 165 160 155 151 152 153 151 151 150 147 142 135 129 123 121 117 111 111 112 109 103 100 98 91 82 74 66 58 49 40 32 25 16
199 197 190 180 176 179 179 185 195 202 205 214 216 215 209 187 191 180 151 158 167 211 215 183 192 183 157 149 123 126 143 162 171 155 156 157 151 154 154 161 164 153 159 163 163 155 144 146 134 134 187 200 171 158 155 154 151 152 155 153 148 143 142 137 129 123 121 121 115 110 110 110 113 115 112 103 94 87 74 59 48 39 29 20 13 8
201 177 170 176 180 186 188 189 195 201 200 204 215 230 228 190 184 146 143 162 174 198 198 191 201 191 179 177 147 146 167 171 182 177 170 158 150 158 162 163 160 153 171 172 160 156 150 143 134 143 183 187 162 152 149 149 147 146 148 146 139 134 134 130 126 127 129 129 125 121 121 121 120 112 92 73 72 76 67 51 35 22 16 12 11 11
185 164 172 184 186 189 194 195 193 196 205 201 196 213 229 189 185 174 168 182 195 192 182 198 219 190 177 183 158 161 177 171 180 189 181 169 162 168 170 166 159 157 174 176 163 157 147 141 138 142 164 152 138 142 141 137 136 135 132 129 126 122 121 120 121 125 124 120 113 104 102 107 113 107 92 81 79 77 60 43 27 17 13 14 19 19
175 170 182 189 187 190 195 198 191 193 211 196 169 182 190 179 186 188 190 201 203 162 154 198 225 224 196 183 163 168 178 170 177 189 185 183 179 179 178 168 162 167 177 173 162 154 144 140 135 130 136 128 123 135 136 130 127 127 122 117 115 110 108 106 102 101 99 98 95 92 90 90 91 96 102 107 106 92 52 37 28 18 13 17 27 29
170 179 182 183 189 193 195 196 185 192 211 172 151 173 183 183 191 195 205 211 201 180 193 195 207 232 216 165 159 173 180 176 178 186 191 193 189 187 183 172 169 175 177 168 159 151 138 129 122 124 132 128 124 128 125 120 117 115 114 111 108 104 102 99 94 92 90 90 91 94 97 96 95 99 110 128 129 93 54 40 33 25 27 29 35 37
171 189 182 182 192 194 195 194 181 191 204 151 154 175 177 188 202 207 218 217 200 216 222 195 185 216 219 159 162 180 188 186 179 183 193 195 195 193 185 177 172 173 172 166 158 140 119 109 109 118 120 111 110 113 111 112 109 108 110 107 103 101 96 95 101 104 97 88 83 83 91 102 114 124 141 138 84 49 25 33 36 38 45 44 40 34
165 184 185 189 199 194 189 184 176 191 195 154 173 188 179 194 203 208 225 231 221 221 225 206 189 208 218 174 173 187 192 189 181 182 189 191 195 195 187 179 171 168 167 163 152 125 107 105 112 115 105 101 106 105 103 109 109 108 107 102 98 96 93 96 104 101 89 78 74 74 75 76 77 82 80 75 59 29 22 34 38 40 45 43 38 29
161 177 186 193 200 188 175 174 177 191 190 169 186 193 183 191 192 203 210 214 229 227 220 210 193 204 221 194 175 182 185 185 184 185 186 187 192 194 188 178 170 167 164 155 142 121 112 113 115 107 99 105 117 116 107 111 112 108 106 102 96 93 96 101 100 90 79 73 75 74 75 74 74 77 68 60 49 39 40 39 37 41 40 36 32 25
170 180 180 182 195 187 174 173 179 188 189 187 193 191 191 188 183 203 201 200 221 225 209 199 187 201 224 209 170 176 183 185 187 191 188 185 188 189 186 177 167 161 155 146 134 123 118 115 111 110 110 118 128 126 114 114 114 111 110 106 101 97 96 95 90 82 77 77 74 76 82 82 82 83 76 71 61 55 55 48 45 43 39 36 30 26
170 179 180 177 186 192 190 184 178 183 186 193 195 188 193 190 183 201 199 200 212 192 150 187 189 207 219 187 162 175 186 187 189 195 190 185 186 184 178 169 153 142 145 143 133 123 122 124 127 129 130 134 135 128 119 116 113 111 110 104 100 100 96 91 90 85 79 77 75 76 80 79 83 84 81 80 73 67 66 60 54 49 45 43 36 32
171 176 183 183 179 186 198 198 183 180 183 194 201 196 203 201 191 203 202 203 205 180 158 177 189 215 210 154 133 161 179 185 188 187 177 180 183 173 163 155 138 134 143 140 131 130 136 141 142 136 132 138 139 130 121 114 112 111 108 104 102 102 100 95 92 87 80 78 75 75 78 81 85 89 85 83 77 74 72 67 63 58 52 51 47 41
180 173 171 181 181 179 193 201 186 182 185 192 201 203 209 210 202 202 203 227 208 178 166 176 189 211 162 116 110 139 163 181 185 172 164 173 165 148 149 148 134 135 147 142 132 134 140 141 141 134 131 136 135 126 117 113 113 113 109 107 105 102 100 94 89 88 84 81 78 74 76 78 83 90 90 85 81 79 77 74 71 65 58 55 53 46
183 160 158 167 174 179 190 196 188 191 189 184 200 207 206 213 218 202 133 58 85 198 180 184 191 146 132 152 158 165 171 177 178 169 168 170 157 149 151 145 138 143 149 144 137 140 144 142 140 135 131 131 129 122 118 116 117 115 111 110 107 101 97 90 86 87 86 84 81 75 75 79 83 89 90 89 87 84 81 79 75 69 64 58 54 49
175 147 155 164 167 178 188 188 190 202 204 189 198 201 195 214 238 222 195 169 196 216 189 183 197 183 175 176 160 172 178 172 173 172 171 170 162 156 151 146 148 150 147 144 144 147 147 144 140 132 127 125 126 124 121 120 118 116 114 111 107 102 98 92 89 89 88 88 84 80 82 86 88 90 90 89 87 85 83 79 75 71 66 61 56 52
172 143 159 174 169 171 181 184 189 204 216 223 210 196 191 205 212 206 210 199 198 214 205 195 207 202 193 180 164 175 179 173 175 174 172 175 171 162 154 153 151 147 145 147 148 146 144 144 141 133 128 128 130 129 126 123 121 118 116 113 109 105 101 97 94 90 88 90 91 91 91 92 92 91 90 89 86 84 82 78 77 73 69 66 61 57
176 149 157 177 171 164 176 193 195 192 202 229 223 204 202 212 211 206 215 217 205 212 211 202 205 209 203 182 170 175 178 177 178 177 179 182 179 170 157 154 151 147 148 149 148 145 142 145 143 135 132 134 135 133 128 123 122 121 120 118 114 108 102 98 96 94 91 92 97 99 98 95 93 90 88 86 83 80 78 76 79 77 72 70 65 60
180 163 151 170 172 171 182 197 198 187 183 202 212 202 198 207 217 214 214 219 224 220 208 203 210 210 187 168 172 177 177 179 182 182 185 185 179 168 156 153 150 145 147 148 146 144 142 144 141 136 135 135 135 132 125 122 122 121 121 120 117 112 105 100 98 99 98 98 100 101 99 95 92 87 85 83 81 79 76 74 76 77 76 72 67 63
186 174 156 166 173 182 191 192 198 196 188 196 208 202 199 200 202 210 211 208 220 234 223 215 216 185 138 162 183 182 177 182 187 184 181 180 174 161 152 151 144 141 146 146 144 144 144 143 142 140 138 138 137 131 123 122 123 122 122 121 117 112 106 104 105 106 105 104 103 100 98 95 91 87 84 84 82 79 77 73 74 77 78 75 69 65
192 181 165 166 173 187 187 186 201 204 193 199 213 210 206 204 202 210 208 194 203 227 244 230 215 150 127 172 188 180 176 181 184 178 172 169 163 152 146 144 141 142 146 145 144 145 145 144 143 141 141 141 138 128 121 122 124 125 126 123 116 110 107 107 108 109 108 107 104 102 99 95 93 89 85 84 81 79 77 74 74 75 77 76 72 67
187 185 172 167 171 176 165 176 203 212 202 203 211 212 211 208 207 216 222 208 205 206 198 210 207 152 142 174 162 160 169 169 171 173 167 159 151 147 144 142 144 146 147 148 147 145 144 144 143 144 145 143 133 123 120 122 126 129 131 127 118 111 109 108 109 110 109 107 105 102 99 95 93 90 86 82 80 79 77 74 74 74 74 75 72 69
181 182 175 169 169 170 165 178 198 208 208 206 206 211 216 212 205 211 225 223 215 209 204 212 212 148 133 166 175 170 166 163 168 171 162 154 151 148 144 144 147 147 149 151 149 147 148 147 148 149 150 144 132 123 123 127 131 134 134 128 119 113 110 109 110 110 108 106 105 102 98 94 91 87 84 82 79 78 76 74 73 73 73 74 73 70
184 185 183 179 175 178 184 188 192 195 201 209 208 208 212 212 204 203 209 210 214 213 207 215 214 128 123 163 177 178 173 164 163 159 152 151 151 148 146 147 149 149 153 154 152 151 151 150 151 151 148 142 133 129 130 134 135 136 133 126 117 113 111 110 112 111 108 106 103 99 96 92 88 86 83 81 79 77 76 75 73 72 72 73 72 70
185 189 197 201 193 191 191 186 185 188 194 204 209 209 209 210 208 207 209 214 217 212 209 217 208 149 140 169 176 177 178 167 162 158 151 150 150 148 148 148 149 152 154 154 152 152 151 150 149 147 144 139 135 133 134 136 137 135 130 124 116 112 111 112 114 112 107 105 100 96 94 90 88 86 82 81 80 79 77 75 73 72 71 71 72 70
189 186 198 213 208 202 198 179 178 192 198 201 206 211 211 209 210 212 216 218 216 217 220 213 198 175 163 172 176 179 181 174 167 163 155 152 151 147 146 148 150 154 156 155 155 153 150 148 147 146 143 138 136 135 134 136 138 134 128 123 116 112 113 115 116 112 107 103 99 96 94 91 88 86 84 83 82 80 78 76 73 72 71 71 70 68
202 187 190 202 199 199 200 177 180 196 201 200 203 208 209 209 211 213 217 221 219 226 229 197 191 198 189 179 180 180 181 178 167 159 150 147 148 145 146 149 152 155 158 158 158 154 149 148 147 144 140 137 139 140 139 140 140 133 126 120 115 114 116 118 116 111 106 102 99 98 96 94 91 88 86 85 82 81 79 76 74 72 70 69 68 67
218 181 177 192 190 178 182 174 189 202 204 203 206 208 209 212 214 213 215 217 218 230 236 206 200 211 204 194 188 175 169 166 156 153 149 146 149 147 147 150 153 156 159 159 158 154 148 145 142 139 139 142 143 143 143 144 140 132 125 119 115 115 117 118 114 109 107 103 101 101 99 96 94 90 88 86 83 82 80 77 75 72 70 68 67 67
216 174 167 188 187 167 165 175 194 205 210 210 212 212 213 215 216 215 214 214 214 221 226 219 212 210 195 185 174 154 147 150 153 158 156 152 152 149 148 153 156 158 160 160 156 149 139 137 139 140 142 143 142 143 144 143 137 131 124 119 117 116 116 116 112 107 106 105 104 104 102 99 96 92 90 86 84 82 80 78 75 73 71 68 65 65
208 179 163 188 195 173 170 185 191 198 212 218 217 216 215 216 217 215 214 216 215 215 215 217 217 196 148 147 150 144 149 157 160 164 163 159 160 156 155 158 159 160 160 155 148 141 135 136 142 143 142 143 144 145 144 141 137 131 125 121 120 120 119 117 113 111 109 108 108 107 104 102 99 94 91 87 85 83 80 79 77 74 71 67 64 63
200 188 170 190 199 177 174 188 190 190 211 221 220 217 218 221 223 221 219 217 215 217 216 213 219 196 149 150 152 155 167 174 175 174 169 167 168 164 161 162 161 158 151 143 137 136 136 142 145 145 147 150 150 147 143 142 136 129 125 124 123 123 122 120 117 115 113 112 111 108 106 105 101 96 93 88 85 83 81 80 78 74 72 68 65 63
193 198 185 186 197 180 168 170 185 202 212 213 208 232 225 224 224 223 222 215 209 215 220 221 231 205 157 160 169 172 180 187 186 180 172 168 169 166 164 164 156 139 134 138 141 141 143 147 150 151 153 154 149 142 140 136 129 125 122 121 120 118 117 115 113 113 113 113 112 111 110 108 103 99 95 90 86 84 82 81 78 75 73 69 66 63
189 201 190 182 203 184 158 165 200 212 211 136 61 32 31 227 228 228 231 219 203 203 203 211 225 206 175 178 180 174 177 182 179 176 171 168 165 161 161 160 148 138 143 150 149 147 149 151 152 155 154 149 142 138 137 133 127 123 120 117 117 115 113 113 112 112 113 113 112 113 112 110 106 101 95 90 88 85 84 83 79 76 73 70 67 64
187 197 188 188 208 184 165 193 209 196 120 111 120 121 123 130 161 197 233 224 203 200 202 207 218 215 194 179 162 157 162 162 165 171 171 168 164 161 161 159 153 151 152 148 143 145 151 153 152 151 148 142 139 140 138 134 127 122 119 118 116 115 115 115 113 112 112 112 112 113 113 111 107 102 97 94 92 90 87 85 80 77 75 73 71 67
195 193 186 192 211 199 192 203 201 166 168 182 191 188 182 182 181 193 226 224 200 196 203 206 209 201 179 156 141 143 145 144 156 173 171 168 166 165 163 159 154 149 140 135 138 146 153 151 145 141 138 137 139 140 136 131 125 120 119 118 116 116 116 113 110 110 110 111 111 111 111 110 106 103 101 99 97 95 91 87 81 78 76 75 73 70
209 202 192 190 200 209 212 207 204 224 227 202 174 172 179 197 184 185 227 231 194 187 195 200 195 178 162 148 143 143 142 146 164 177 174 173 171 168 162 153 146 141 139 140 144 148 151 147 138 134 134 134 135 136 133 128 124 121 119 118 117 115 112 109 109 111 111 111 111 109 108 107 106 105 104 103 102 100 95 88 83 79 76 75 75 74
212 211 205 199 192 198 217 217 210 225 228 146 126 144 163 179 162 165 221 231 189 177 185 191 184 170 157 150 150 152 155 168 182 181 177 177 174 166 155 146 142 141 143 148 150 149 145 138 131 130 132 132 132 133 131 126 122 119 117 117 116 113 110 110 112 114 115 114 111 109 106 105 106 106 106 106 104 101 96 90 85 82 80 79 78 77
199 205 209 211 203 198 213 224 219 224 186 111 124 140 153 163 167 183 214 221 170 169 177 181 177 168 159 157 161 169 178 190 191 178 172 173 171 160 149 146 148 146 145 147 148 143 135 130 130 132 134 133 132 132 129 124 121 119 120 120 119 116 116 118 119 119 118 115 111 109 107 105 105 105 106 108 104 100 97 92 88 84 81 80 80 79
187 194 205 213 212 204 211 227 229 218 124 115 136 145 145 153 183 201 204 12 153 176 178 177 175 169 164 166 174 185 196 193 155 156 159 159 159 155 149 148 149 148 145 145 143 137 130 130 134 135 135 134 134 133 131 127 124 124 126 126 123 121 122 123 123 122 120 116 112 109 106 105 106 105 105 105 104 102 98 92 89 86 82 81 80 78
182 188 198 210 216 210 210 226 232 218 138 127 137 142 153 171 197 204 155 15 234 196 185 182 178 170 168 173 181 186 177 140 137 147 151 145 142 146 146 144 142 138 135 138 139 136 134 135 136 135 135 137 138 137 134 131 128 128 128 125 122 123 125 126 126 124 121 116 112 108 107 107 107 105 105 105 105 102 97 93 90 87 83 82 80 78
181 186 196 201 210 212 208 219 232 233 157 146 144 149 187 205 109 33 42 34 219 193 184 185 181 169 167 174 179 162 140 138 144 150 149 139 134 137 138 136 134 131 130 135 139 138 137 138 138 137 139 142 142 140 137 133 129 128 126 124 124 126 128 129 128 125 120 116 111 109 109 109 109 108 107 107 104 99 96 93 89 87 84 83 82 79
183 195 207 194 191 208 210 208 228 354 143 161 160 162 198 147 57 15 10 49 132 178 179 180 178 176 177 177 170 150 137 142 150 155 153 144 136 134 133 132 134 137 138 139 140 140 140 139 140 141 144 145 143 141 139 135 131 129 128 127 129 131 130 129 128 124 119 116 114 113 113 113 112 110 108 105 102 97 94 90 86 85 83 79 79 77
179 228 264 213 189 212 234 180 63 42 135 168 175 9 27 64 57 5 3 34 111 161 170 177 177 178 181 173 160 147 142 147 154 157 156 151 142 138 136 134 137 139 139 139 141 143 144 143 144 144 144 144 143 141 140 137 134 133 132 132 134 134 132 130 128 125 122 121 119 118 119 118 115 110 107 104 100 94 90 88 84 84 82 76 74 72
50 336 290 234 184 206 290 118 116 95 161 181 213 353 3 13 44 47 337 352 127 141 166 182 173 164 161 159 156 152 146 147 152 155 153 152 149 142 136 135 138 141 141 141 143 146 146 145 145 145 143 143 144 142 141 140 138 136 136 138 138 136 134 132 129 128 126 125 124 124 123 120 116 110 105 102 98 91 87 85 84 83 81 77 73 68
127 238 256 210 176 194 201 146 125 132 187 214 229 231 283 338 86 171 316 346 132 153 173 167 150 142 140 144 151 150 142 144 150 151 150 152 151 144 137 139 142 144 145 146 147 148 148 146 146 146 144 144 144 143 143 142 141 139 140 142 141 138 137 134 132 130 130 128 128 128 126 123 120 114 108 102 98 93 88 83 81 79 76 72 72 69
144 185 224 200 181 187 177 113 107 153 213 222 231 226 223 202 153 147 213 140 138 147 143 129 128 135 138 139 141 140 141 147 151 152 154 154 148 140 139 142 143 145 147 148 148 149 149 148 147 146 144 143 144 145 145 144 143 143 144 145 144 142 140 138 135 134 133 132 131 131 129 129 126 120 113 106 100 95 89 84 79 75 67 59 57 62
131 170 199 199 190 197 189 149 163 199 206 201 205 206 200 192 160 148 150 147 139 137 135 132 136 142 142 141 140 139 143 151 154 157 158 152 142 139 141 142 143 146 149 150 151 151 149 147 147 145 143 143 145 146 146 145 146 147 147 148 148 146 143 140 138 136 135 134 133 132 132 133 130 123 115 110 101 92 89 91 88 81 75 71 71 75
180 180 181 202 205 212 189 147 169 211 216 180 185 185 174 176 178 155 145 143 140 140 146 152 154 152 146 145 146 144 145 153 161 161 155 145 140 142 143 143 146 149 150 151 152 150 147 146 146 145 144 146 148 148 148 147 148 150 150 150 150 148 145 144 142 140 138 137 136 137 138 136 131 127 124 118 111 104 99 101 104 101 95 89 83 81
240 142 55 246 229 310 41 65 95 325 10 67 114 141 136 145 174 154 140 141 142 146 155 158 157 157 152 149 150 150 148 153 160 157 147 141 144 147 148 149 150 151 151 150 149 147 146 146 146 146 146 148 150 150 149 150 151 152 151 152 152 150 149 148 145 143 143 142 141 142 143 139 135 134 133 130 127 125 119 113 109 107 104 99 91 84
Height
752 758 757 752 748 748 749 746 743 743 741 742 745 747 746 747 748 744 745 746 744 750 752 748 749 751 753 753 753 756 769 785 787 785 790 795 796 792 790 792 795 798 798 797 799 801 802 804 805 805 806 808 810 810 809 810 813 815 817 818 820 821 823 824 825 826 827 828 829 830 832 832 833 834 835 836 836 837 837 837 837 837 838 838 838 838
752 755 749 745 743 742 746 745 744 747 746 744 745 746 745 745 743 741 745 747 744 749 749 745 748 750 749 751 752 758 776 787 782 782 786 789 792 791 789 791 794 798 797 796 798 801 803 805 807 807 806 807 809 810 810 811 813 815 817 819 821 822 822 823 824 825 826 827 829 830 831 832 834 834 835 836 836 837 837 837 838 838 838 838 838 838
755 751 742 740 740 740 744 744 747 750 747 746 744 745 747 742 741 745 747 746 746 749 747 747 751 750 750 753 755 763 778 783 777 777 779 782 789 789 788 790 791 792 793 793 795 798 801 803 806 809 808 807 808 809 811 811 813 815 817 819 820 821 822 823 824 824 825 827 829 830 831 833 834 835 836 836 837 838 838 838 838 839 839 838 838 838
753 746 737 736 738 742 746 747 750 752 749 748 744 745 745 738 743 752 750 748 748 746 745 748 750 752 761 768 768 771 778 779 776 775 775 777 783 785 785 786 787 788 790 792 794 796 799 802 806 811 811 811 810 810 811 812 813 814 817 819 819 820 821 822 823 824 826 827 829 831 832 833 834 836 837 837 838 839 839 839 839 839 839 839 839 838
742 736 732 736 741 744 748 750 751 753 753 750 744 742 740 737 741 745 746 748 749 749 745 747 754 758 766 776 779 778 777 777 775 774 775 775 780 784 783 784 787 789 789 790 790 792 796 801 805 808 813 814 813 812 812 812 814 815 818 819 819 820 821 822 823 825 826 828 829 831 833 834 835 836 837 837 839 839 839 839 839 840 839 839 839 839
735 732 733 741 745 744 747 749 749 751 753 752 747 741 736 737 741 743 745 748 756 760 747 746 764 768 760 768 780 782 778 776 773 772 774 774 778 782 783 785 787 788 788 787 786 788 793 799 802 805 811 814 813 813 813 813 815 816 818 819 820 821 822 823 824 825 827 828 830 831 833 834 835 837 838 838 839 839 839 840 840 840 840 839 839 838
732 734 737 742 744 744 746 747 745 746 750 753 748 742 738 738 741 745 745 749 757 758 744 742 759 766 761 765 775 780 776 774 773 771 771 772 776 779 781 783 785 786 786 785 785 787 792 798 800 804 811 813 813 813 813 813 815 816 818 819 820 822 823 824 825 826 828 829 830 832 833 835 836 837 838 839 839 840 840 840 840 840 839 839 839 838
730 738 741 740 742 744 746 746 742 741 748 748 741 741 745 744 745 746 745 747 745 745 749 746 748 758 763 762 767 773 774 774 774 772 771 771 773 774 776 779 781 783 783 785 787 789 793 797 798 805 812 814 815 815 814 814 815 817 819 820 821 822 824 825 827 828 829 830 831 833 835 836 837 838 839 840 840 840 841 841 840 840 840 839 839 838
731 739 740 738 742 743 742 740 737 741 746 741 737 742 745 745 748 746 745 745 740 751 763 751 748 761 760 754 763 769 771 775 775 773 772 770 770 771 773 776 779 781 783 785 788 789 793 797 801 807 812 815 818 817 815 815 816 818 819 821 822 824 826 827 828 829 830 832 833 835 836 837 838 839 839 840 840 841 841 841 841 840 840 840 839 839
735 734 732 735 740 739 737 734 735 741 742 738 739 743 744 746 748 747 747 744 746 763 764 746 748 763 758 756 767 770 769 771 770 769 770 768 767 768 770 775 778 781 784 786 788 791 794 798 805 811 813 816 821 820 818 818 818 820 821 823 825 826 828 829 830 831 832 834 835 836 837 838 839 839 839 840 840 841 841 841 841 841 841 841 840 840
731 729 729 732 734 732 732 733 735 739 738 739 744 745 748 750 748 750 749 745 757 769 758 739 741 754 758 755 759 763 762 760 762 765 768 767 766 766 767 772 777 781 784 786 790 793 797 801 805 811 813 816 821 823 821 820 821 823 824 825 827 828 830 830 831 832 833 835 836 837 838 838 839 839 840 840 841 841 841 841 842 842 841 841 841 840
733 733 733 729 728 728 731 736 738 737 736 742 746 747 755 757 755 760 758 758 773 770 748 734 736 750 758 750 744 749 749 749 755 759 763 765 765 764 765 769 775 781 784 787 792 796 799 803 807 811 814 816 820 823 823 823 823 825 826 827 828 829 831 831 832 834 835 836 837 838 839 839 840 840 841 841 841 842 842 842 842 842 842 842 841 841
737 734 731 731 729 727 734 740 741 738 738 743 744 747 760 766 770 775 768 767 771 759 741 731 739 753 751 738 737 743 744 744 748 750 753 758 760 761 765 769 774 780 785 789 793 797 800 805 809 813 815 818 821 824 825 825 825 826 828 828 828 831 832 833 834 835 836 837 838 839 839 840 841 841 842 842 842 842 843 843 843 843 842 842 842 842
740 735 731 735 734 728 730 736 742 741 740 742 740 745 756 761 775 782 770 766 765 756 747 738 745 757 746 733 736 740 740 739 741 743 747 752 755 758 763 769 775 782 787 790 793 798 802 805 809 812 815 819 823 825 826 827 828 828 830 830 830 832 834 835 836 837 838 838 839 840 841 841 842 842 843 843 843 843 843 843 843 843 843 843 843 842
740 742 734 733 733 729 728 727 731 734 737 738 730 734 744 745 760 772 762 760 759 753 753 751 754 757 747 741 739 736 736 736 737 742 746 752 755 758 764 771 779 786 789 790 794 799 802 804 808 810 815 820 824 826 827 828 830 830 832 832 832 834 835 836 837 838 839 840 841 842 842 843 843 843 843 843 844 844 844 844 844 843 844 843 843 843
734 737 727 725 725 725 729 724 721 730 739 735 725 732 741 732 737 753 756 753 750 752 759 759 754 746 743 748 744 740 742 738 738 743 749 755 759 763 771 775 783 788 789 790 795 800 803 805 809 811 815 821 824 826 827 828 831 832 833 834 834 835 836 837 839 839 841 842 842 843 843 844 844 844 844 844 844 844 844 844 844 844 844 844 844 843
730 731 722 724 726 723 726 724 719 728 735 733 732 734 730 719 723 746 761 756 753 763 762 752 750 748 750 754 748 745 748 742 741 747 751 757 762 769 774 778 784 787 788 791 795 800 803 805 810 812 814 819 823 826 827 829 832 833 834 835 836 837 838 839 840 841 842 843 843 844 845 845 845 845 845 844 844 844 844 844 844 844 844 844 844 844
720 730 726 727 733 725 720 723 723 722 723 730 736 729 721 723 726 738 756 761 763 768 756 745 749 752 754 758 753 749 750 747 746 749 752 757 764 772 776 779 783 784 788 792 794 798 802 805 811 812 813 818 823 826 828 830 832 833 835 836 837 838 839 841 842 843 843 843 844 846 846 846 846 846 846 845 845 845 844 845 845 845 845 844 844 844
712 733 735 726 729 727 719 726 732 725 719 723 726 719 723 742 746 742 751 759 764 768 759 747 745 743 744 751 753 751 750 749 748 749 752 757 763 771 776 779 782 784 788 791 793 797 802 806 810 811 813 818 822 825 827 830 832 834 835 837 838 839 841 842 843 843 844 844 845 846 847 847 847 847 846 846 845 845 845 845 845 845 845 845 845 844
710 729 740 727 723 727 726 730 737 732 726 726 724 718 722 735 740 739 742 744 751 761 760 753 750 743 735 735 742 745 744 744 747 748 751 755 760 766 773 778 781 785 788 790 793 797 802 806 809 810 814 818 821 825 826 828 831 833 835 837 838 840 841 843 843 844 844 845 846 847 848 848 848 848 847 846 846 845 845 845 845 846 845 845 845 845
711 721 736 730 722 729 732 728 727 728 730 734 731 726 727 729 728 730 733 731 736 748 752 756 758 743 724 722 731 736 737 739 742 744 748 753 757 764 772 776 780 785 789 791 794 797 801 806 809 812 816 818 823 825 825 827 830 833 836 837 838 839 841 843 844 844 845 846 847 848 849 849 849 849 848 847 847 846 846 846 846 846 846 845 845 845
714 717 729 731 727 730 728 719 717 718 723 729 729 726 728 730 731 739 741 730 728 735 738 745 752 739 721 720 724 725 731 735 735 740 747 751 758 766 773 777 780 785 789 791 795 798 801 806 810 813 816 819 823 824 823 826 829 833 836 838 839 839 840 842 844 845 846 847 848 849 849 850 850 850 849 848 848 847 847 847 846 846 846 846 846 845
711 714 723 731 728 725 719 714 715 715 715 721 724 720 721 723 727 739 743 735 733 735 730 733 742 739 729 724 723 722 726 730 733 740 747 754 761 769 775 778 781 785 788 791 795 798 802 806 811 814 816 819 822 821 822 826 830 834 837 839 840 840 840 842 844 845 846 847 849 849 850 851 851 851 850 849 849 848 848 847 847 847 847 846 847 846
712 713 722 729 725 719 717 716 716 715 716 721 722 716 715 718 719 725 726 726 734 738 737 743 748 743 734 730 729 728 726 731 736 740 748 758 766 771 775 779 782 785 788 791 795 799 803 807 811 815 818 820 820 820 823 827 832 836 839 840 840 840 841 843 845 846 847 848 849 850 851 852 852 852 851 850 850 849 849 849 848 848 847 847 848 848
715 714 717 726 730 731 734 733 727 722 719 719 718 715 713 713 716 722 720 724 735 735 734 744 746 740 736 735 734 733 730 734 738 741 750 761 768 772 775 778 782 785 788 791 794 799 803 806 810 814 818 820 821 822 825 830 835 838 840 841 840 840 841 843 845 847 848 849 850 851 852 852 852 853 852 851 851 850 850 850 849 849 849 849 849 849
713 713 712 722 733 738 739 734 727 723 720 718 716 714 715 714 717 724 728 735 741 733 729 736 738 738 741 739 736 735 734 737 743 748 757 763 767 771 774 778 782 785 788 791 794 798 802 806 810 813 818 821 822 824 828 832 836 839 841 841 840 840 841 843 846 848 849 850 851 852 852 852 853 853 852 852 851 851 851 851 851 851 850 850 850 850
712 713 710 713 720 723 723 718 713 714 720 723 720 717 717 717 717 722 731 736 734 730 731 729 727 737 744 740 738 738 737 743 750 755 761 765 768 772 775 778 782 784 787 790 794 798 802 806 810 814 818 821 822 826 830 834 837 839 841 841 840 840 841 844 847 849 850 851 852 852 852 853 853 853 853 853 852 852 852 852 852 852 852 852 851 851
715 718 714 712 711 708 707 709 710 712 717 720 721 720 718 718 718 722 730 728 724 732 736 723 719 733 739 737 737 736 737 745 753 758 763 766 769 773 777 780 782 784 787 791 795 798 802 806 810 814 817 819 823 827 831 834 837 838 839 840 840 841 842 845 847 849 851 852 852 852 853 853 854 854 854 853 853 854 854 854 854 854 854 853 853 853
715 719 716 715 714 709 705 707 710 712 713 714 717 719 717 718 720 723 727 724 722 732 731 721 722 730 730 730 732 730 732 740 750 759 764 767 771 775 778 781 782 785 787 791 794 798 802 806 809 813 816 819 823 827 830 834 836 837 838 839 840 841 843 846 848 849 851 852 852 853 853 854 854 854 855 855 855 855 855 855 855 855 856 855 855 855
712 715 714 715 718 717 714 713 712 712 712 712 714 714 715 717 716 719 724 723 722 727 724 721 728 727 721 722 724 726 731 738 749 759 763 768 773 775 778 781 783 786 789 791 794 798 803 807 810 814 818 820 823 826 829 833 835 836 837 838 840 842 844 846 848 849 851 852 852 853 854 854 855 855 856 856 856 856 856 856 857 857 858 857 857 857
712 713 712 713 718 722 720 718 716 715 714 715 714 711 711 715 715 718 723 722 724 728 724 724 729 727 721 719 719 726 735 742 752 760 762 766 771 774 779 781 783 786 788 790 794 799 804 808 811 814 818 820 823 826 830 833 834 835 837 838 840 842 844 846 848 850 851 852 853 854 854 855 856 856 857 857 857 857 857 858 858 859 860 859 859 858
714 714 713 715 721 723 722 722 720 718 719 720 717 713 712 715 715 717 719 719 723 728 728 730 732 728 724 723 724 731 741 749 755 758 760 764 766 770 776 779 783 786 788 791 797 802 806 810 812 814 817 821 825 828 830 832 833 835 836 837 839 841 844 846 848 850 851 852 853 854 855 856 856 857 858 858 858 858 859 859 860 861 861 861 861 860
712 713 714 719 723 722 721 723 721 723 730 728 718 712 712 713 714 716 715 715 717 721 726 731 727 720 720 725 730 737 745 751 753 754 757 760 762 766 771 775 780 784 789 795 800 804 808 811 813 815 818 823 827 829 830 832 833 834 835 837 839 841 844 846 847 849 851 852 853 854 855 857 857 858 859 859 859 859 860 861 862 863 863 862 862 861
711 711 711 715 719 720 722 725 727 732 735 728 716 711 712 713 714 716 714 713 714 715 718 721 716 713 719 725 729 735 741 744 747 750 755 758 761 766 770 773 779 784 791 797 800 803 807 810 814 818 821 825 828 829 831 832 832 834 835 837 840 842 844 846 848 850 851 852 853 854 855 857 858 859 859 859 860 861 862 863 864 864 864 863 863 862
711 711 710 712 714 716 722 731 739 739 729 720 719 719 718 718 717 717 717 714 713 715 717 719 716 714 719 722 723 729 735 739 744 750 755 758 761 766 770 774 779 784 789 793 795 799 804 809 814 819 822 825 827 829 831 832 832 833 836 838 840 843 845 847 849 851 852 853 854 855 855 856 858 859 860 860 861 863 864 865 865 865 865 864 864 863
709 711 712 713 712 715 726 734 736 732 723 720 724 724 724 725 724 726 727 721 715 717 718 718 716 714 717 721 723 729 735 740 746 751 754 758 761 765 769 774 780 784 786 790 794 799 805 810 814 818 822 824 826 828 830 831 831 833 836 839 841 844 846 848 850 852 853 854 855 855 856 856 858 859 860 862 863 865 866 867 866 866 865 865 865 864
704 708 712 717 717 718 726 727 722 723 724 723 722 720 719 719 717 721 724 717 711 714 715 714 715 715 718 723 727 732 738 746 754 756 755 757 761 763 766 772 779 784 787 792 798 803 809 812 815 817 821 823 826 828 830 831 832 833 837 840 843 845 848 850 852 853 854 855 856 856 856 856 857 860 861 863 865 867 868 868 867 867 866 865 865 865
700 702 707 717 723 721 721 721 721 725 725 716 710 709 711 712 709 711 718 713 705 707 710 711 713 717 720 726 732 738 746 754 760 759 754 755 759 762 767 773 778 783 787 793 800 806 811 813 815 817 820 823 826 828 829 831 832 834 838 841 844 847 849 851 853 855 855 856 857 857 857 857 859 861 863 865 867 868 868 868 868 867 866 866 866 866
703 701 701 710 720 721 722 723 723 722 716 707 705 707 710 712 709 712 721 715 701 701 708 709 711 716 720 727 735 742 748 754 756 755 752 753 757 762 768 774 779 783 788 794 800 805 809 811 814 817 821 823 826 829 830 831 833 836 839 842 845 847 849 852 854 856 856 857 857 858 858 859 860 862 864 866 867 868 869 868 868 867 867 867 867 867
708 708 708 712 716 717 720 720 713 709 707 705 707 709 709 710 711 718 725 714 696 697 704 704 708 715 719 726 734 738 738 738 739 743 748 752 756 762 767 773 779 785 790 796 801 805 808 811 814 818 822 824 827 829 831 832 835 838 841 844 846 848 850 853 855 857 858 858 858 859 860 861 862 864 866 867 868 869 869 869 868 868 868 868 868 868
710 712 712 713 712 712 718 718 708 702 704 706 707 708 708 711 717 721 720 710 701 700 701 699 704 711 716 723 729 728 726 723 724 734 746 752 756 761 767 774 780 785 789 795 800 804 808 812 816 819 823 826 828 830 832 833 836 839 842 844 847 849 851 854 856 857 859 859 860 861 861 862 864 865 867 868 869 869 869 869 869 869 868 869 869 869
711 713 712 712 710 708 712 714 708 704 705 706 707 708 709 714 717 714 709 707 706 703 700 701 703 707 713 719 722 722 722 723 726 736 748 754 758 765 771 777 783 787 791 795 800 804 808 813 817 821 824 827 829 831 832 834 837 839 842 845 847 850 853 855 857 859 860 860 861 862 863 864 866 867 868 869 869 870 869 869 870 870 870 870 870 871
705 711 712 709 708 708 712 715 713 709 705 704 707 711 712 712 711 707 704 706 705 702 702 704 706 708 714 719 721 722 725 728 733 742 750 755 760 768 774 779 784 789 793 797 802 805 809 813 817 821 824 827 830 831 833 835 837 840 843 846 849 852 854 856 858 859 860 861 862 863 865 866 868 869 870 870 870 870 870 870 871 871 871 872 872 872
697 703 705 701 702 709 713 713 709 704 700 699 702 706 707 708 708 707 705 705 704 703 704 705 707 711 715 717 722 727 729 732 738 744 750 755 760 767 774 779 784 789 793 797 802 806 809 813 817 821 824 827 830 832 834 836 838 841 844 847 851 853 855 857 859 860 861 863 863 865 867 868 869 870 871 871 871 871 871 872 872 872 873 873 873 872
697 699 699 696 696 701 703 703 704 703 701 701 703 704 706 708 710 710 707 706 705 704 703 705 708 712 715 718 724 729 731 734 739 744 749 754 761 767 773 779 784 789 793 797 802 806 810 813 816 821 824 827 830 832 834 837 839 842 845 849 852 854 856 858 860 861 862 864 865 867 868 869 870 871 871 871 872 872 872 873 873 873 874 874 874 873
700 702 699 695 695 699 702 704 706 707 705 705 707 709 710 710 711 710 709 707 706 705 705 706 708 713 718 722 726 730 733 736 741 746 750 755 762 770 774 779 785 789 793 797 802 806 810 814 817 820 823 827 830 833 835 838 840 843 846 849 852 854 856 858 860 862 863 865 866 868 869 870 871 872 872 872 872 873 873 874 874 875 875 875 875 874
701 702 698 695 698 702 704 704 706 708 710 709 709 710 710 711 711 711 710 708 707 707 707 707 711 717 721 724 727 732 736 738 742 749 754 758 764 770 775 779 785 790 793 797 801 805 809 813 817 820 823 826 830 833 836 839 841 844 847 850 852 855 857 859 861 862 864 865 867 869 870 871 872 872 872 873 873 874 875 875 876 876 876 876 876 875
700 701 699 696 697 700 703 706 709 711 712 711 711 710 709 710 711 711 710 709 708 709 710 712 716 720 724 727 730 734 738 741 744 750 756 761 765 770 775 780 785 790 794 797 801 805 809 812 816 820 823 826 830 833 836 839 842 845 848 851 853 855 857 860 861 863 864 866 867 869 870 871 872 872 873 874 874 875 876 877 877 878 878 878 877 876
701 701 698 696 696 697 700 705 708 709 708 708 710 710 709 709 710 711 712 710 709 710 714 717 720 722 725 729 732 735 739 743 745 749 755 760 765 770 776 780 785 790 794 798 802 806 809 812 816 820 823 827 830 834 837 840 843 846 849 851 854 856 858 860 862 863 865 866 868 869 871 871 872 873 873 874 875 876 877 878 879 879 880 879 878 877
701 698 696 697 698 698 696 698 701 702 701 702 705 707 709 711 711 710 711 710 710 712 715 719 722 724 727 730 732 735 740 744 747 750 755 760 766 771 776 781 785 790 794 798 802 806 809 813 817 820 824 828 831 834 837 840 844 847 849 852 854 856 858 860 862 863 865 866 868 869 870 871 872 873 874 875 876 878 879 879 880 880 881 881 880 879
701 700 700 701 701 700 699 699 700 701 701 702 705 707 709 711 711 710 710 711 712 713 716 719 723 726 729 731 733 736 739 744 748 752 755 760 767 773 777 781 785 789 794 798 802 806 810 814 818 821 825 828 831 834 838 841 844 847 850 852 854 856 859 860 862 863 865 866 868 869 870 871 872 873 874 875 876 878 879 880 881 882 881 881 881 880